QPF
0.00 0.00 0.00 0.00 0.00 0.00 0.00 0.00 0.00 0.00 0.00 0.00 0.00 0.00 0.00 0.00 0.00 0.00 0.00 0.00 0.00 0.00 0.00 0.00 0.00 0.00 0.00 0.00 0.00 0.00 0.00 0.00 0.00 0.00 0.00 0.00 0.00 0.00 0.00 0.00 0.00 0.00 0.00 0.00
0.00 0.00 0.00 0.00 0.00 0.00 0.00 0.00 0.00 0.00 0.00 0.00 0.00 0.00 0.00 0.00 0.00 0.00 0.00 0.00 0.00 0.00 0.00 0.00 0.00 0.00 0.00 0.00 0.00 0.00 0.00 0.00 0.00 0.00 0.00 0.00 0.00 0.00 0.00 0.00 0.00 0.00 0.00 0.00
0.00 0.00 0.00 0.00 0.00 0.00 0.00 0.00 0.00 0.00 0.00 0.00 0.00 0.00 0.00 0.00 0.00 0.00 0.00 0.00 0.00 0.00 0.00 0.00 0.00 0.00 0.00 0.00 0.00 0.00 0.00 0.00 0.00 0.00 0.00 0.00 0.00 0.00 0.00 0.00 0.00 0.00 0.00 0.00
0.00 0.00 0.00 0.00 0.00 0.00 0.00 0.00 0.00 0.00 0.00 0.00 0.00 0.00 0.00 0.00 0.00 0.00 0.00 0.00 0.00 0.00 0.00 0.00 0.00 0.00 0.00 0.00 0.00 0.00 0.00 0.00 0.00 0.00 0.00 0.00 0.00 0.00 0.00 0.00 0.00 0.00 0.00 0.00
0.00 0.00 0.00 0.00 0.00 0.00 0.00 0.00 0.00 0.00 0.00 0.00 0.00 0.00 0.00 0.00 0.00 0.00 0.00 0.00 0.00 0.00 0.00 0.00 0.00 0.00 0.00 0.00 0.00 0.00 0.00 0.00 0.00 0.00 0.00 0.00 0.00 0.00 0.00 0.00 0.00 0.00 0.00 0.00
0.00 0.00 0.00 0.00 0.00 0.00 0.00 0.00 0.00 0.00 0.00 0.00 0.00 0.00 0.00 0.00 0.00 0.00 0.00 0.00 0.00 0.00 0.00 0.00 0.00 0.00 0.00 0.00 0.00 0.00 0.00 0.00 0.00 0.00 0.00 0.00 0.00 0.00 0.00 0.00 0.00 0.00 0.00 0.00
0.00 0.00 0.00 0.00 0.00 0.00 0.00 0.00 0.00 0.00 0.00 0.00 0.00 0.00 0.00 0.00 0.00 0.00 0.00 0.00 0.00 0.00 0.00 0.00 0.00 0.00 0.00 0.00 0.00 0.00 0.00 0.00 0.00 0.00 0.00 0.00 0.00 0.00 0.00 0.00 0.00 0.00 0.00 0.00
0.00 0.00 0.00 0.00 0.00 0.00 0.00 0.00 0.01 0.02 0.00 0.00 0.00 0.00 0.00 0.00 0.00 0.00 0.00 0.00 0.00 0.00 0.00 0.00 0.00 0.00 0.00 0.00 0.00 0.00 0.00 0.00 0.00 0.00 0.00 0.00 0.00 0.00 0.00 0.00 0.00 0.00 0.00 0.00
0.00 0.00 0.00 0.00 0.00 0.00 0.00 0.00 0.00 0.05 0.03 0.03 0.00 0.00 0.00 0.00 0.00 0.00 0.00 0.00 0.00 0.00 0.00 0.00 0.00 0.00 0.00 0.00 0.00 0.00 0.00 0.00 0.00 0.00 0.00 0.00 0.00 0.00 0.00 0.00 0.00 0.00 0.00 0.00
0.00 0.00 0.00 0.00 0.00 0.00 0.00 0.00 0.02 0.04 0.04 0.03 0.00 0.00 0.00 0.00 0.00 0.00 0.00 0.00 0.00 0.00 0.00 0.00 0.00 0.00 0.00 0.00 0.00 0.00 0.00 0.00 0.00 0.00 0.00 0.00 0.00 0.00 0.00 0.00 0.00 0.00 0.01 0.01
0.00 0.00 0.00 0.00 0.00 0.00 0.00 0.00 0.01 0.07 0.07 0.06 0.01 0.00 0.00 0.00 0.00 0.00 0.00 0.00 0.00 0.00 0.00 0.00 0.00 0.00 0.00 0.00 0.00 0.00 0.00 0.00 0.00 0.00 0.00 0.00 0.00 0.00 0.00 0.00 0.00 0.00 0.00 0.00
0.00 0.00 0.00 0.00 0.00 0.00 0.00 0.01 0.02 0.05 0.10 0.12 0.07 0.02 0.00 0.00 0.00 0.00 0.00 0.00 0.00 0.00 0.00 0.00 0.00 0.01 0.01 0.00 0.00 0.00 0.00 0.00 0.00 0.00 0.00 0.00 0.00 0.00 0.00 0.00 0.00 0.00 0.00 0.00
0.00 0.00 0.00 0.00 0.00 0.00 0.00 0.00 0.00 0.00 0.00 0.00 0.02 0.00 0.00 0.00 0.00 0.00 0.00 0.00 0.00 0.00 0.00 0.00 0.00 0.01 0.05 0.06 0.02 0.00 0.00 0.00 0.00 0.00 0.00 0.00 0.00 0.01 0.00 0.02 0.02 0.00 0.01 0.01
0.00 0.00 0.00 0.01 0.00 0.00 0.00 0.00 0.00 0.00 0.00 0.00 0.00 0.00 0.00 0.00 0.00 0.00 0.00 0.00 0.00 0.00 0.00 0.00 0.02 0.01 0.03 0.17 0.18 0.05 0.01 0.01 0.00 0.00 0.00 0.01 0.01 0.06 0.06 0.08 0.07 0.09 0.05 0.01
0.02 0.03 0.00 0.00 0.00 0.00 0.00 0.00 0.00 0.00 0.00 0.00 0.00 0.00 0.00 0.00 0.00 0.00 0.00 0.00 0.00 0.00 0.00 0.01 0.03 0.03 0.02 0.10 0.28 0.29 0.13 0.03 0.00 0.01 0.03 0.05 0.06 0.05 0.08 0.05 0.07 0.03 0.01 0.00
0.01 0.06 0.03 0.01 0.00 0.00 0.00 0.00 0.00 0.00 0.01 0.00 0.00 0.00 0.00 0.00 0.00 0.00 0.00 0.00 0.01 0.00 0.00 0.00 0.03 0.12 0.14 0.23 0.55 0.41 0.24 0.14 0.06 0.10 0.09 0.08 0.07 0.04 0.02 0.02 0.01 0.00 0.00 0.00
0.05 0.04 0.01 0.00 0.00 0.00 0.00 0.00 0.02 0.02 0.01 0.00 0.00 0.00 0.00 0.00 0.00 0.00 0.00 0.01 0.03 0.02 0.01 0.04 0.06 0.20 0.33 0.44 0.87 0.59 0.33 0.18 0.11 0.08 0.08 0.04 0.03 0.02 0.01 0.00 0.00 0.00 0.00 0.00
0.00 0.00 0.01 0.00 0.00 0.00 0.00 0.00 0.00 0.00 0.00 0.00 0.00 0.00 0.00 0.00 0.00 0.00 0.00 0.02 0.03 0.02 0.01 0.02 0.06 0.20 0.77 0.22 0.33 0.53 0.38 0.16 0.06 0.04 0.03 0.02 0.01 0.00 0.00 0.00 0.00 0.00 0.00 0.00
0.00 0.00 0.00 0.00 0.00 0.00 0.00 0.00 0.00 0.01 0.00 0.00 0.00 0.00 0.00 0.00 0.00 0.00 0.00 0.00 0.00 0.00 0.00 0.02 0.09 0.28 0.88 0.52 0.65 0.66 0.25 0.16 0.07 0.02 0.02 0.01 0.00 0.00 0.00 0.00 0.00 0.00 0.00 0.01
0.01 0.00 0.01 0.01 0.01 0.00 0.00 0.00 0.00 0.00 0.00 0.00 0.00 0.00 0.00 0.00 0.00 0.00 0.00 0.00 0.00 0.00 0.00 0.01 0.08 0.35 1.14 0.90 1.02 0.58 0.18 0.06 0.01 0.00 0.00 0.00 0.00 0.00 0.00 0.00 0.00 0.00 0.00 0.00
0.01 0.01 0.02 0.01 0.04 0.00 0.00 0.00 0.00 0.00 0.01 0.00 0.00 0.00 0.00 0.00 0.00 0.00 0.00 0.00 0.00 0.00 0.00 0.02 0.14 0.94 1.26 1.10 0.72 0.33 0.10 0.01 0.00 0.00 0.00 0.00 0.00 0.00 0.00 0.00 0.00 0.00 0.00 0.01
0.00 0.03 0.01 0.06 0.07 0.01 0.00 0.00 0.01 0.02 0.01 0.00 0.00 0.00 0.00 0.00 0.00 0.00 0.00 0.00 0.00 0.00 0.00 0.02 0.14 1.08 1.09 0.42 0.19 0.10 0.01 0.00 0.00 0.00 0.00 0.00 0.00 0.00 0.00 0.00 0.00 0.00 0.00 0.00
0.00 0.01 0.01 0.05 0.02 0.02 0.01 0.00 0.02 0.01 0.01 0.01 0.01 0.01 0.02 0.01 0.00 0.00 0.00 0.00 0.00 0.00 0.00 0.02 0.13 0.90 0.63 0.12 0.04 0.01 0.00 0.00 0.00 0.00 0.00 0.00 0.00 0.00 0.00 0.00 0.00 0.00 0.00 0.00
0.00 0.00 0.00 0.04 0.03 0.00 0.00 0.01 0.01 0.00 0.03 0.01 0.00 0.00 0.00 0.01 0.00 0.00 0.00 0.00 0.00 0.00 0.01 0.03 0.30 0.73 0.22 0.12 0.05 0.01 0.00 0.00 0.00 0.00 0.00 0.00 0.00 0.00 0.00 0.00 0.00 0.00 0.00 0.00
0.00 0.03 0.20 0.13 0.01 0.00 0.00 0.01 0.00 0.01 0.02 0.01 0.00 0.01 0.01 0.00 0.00 0.00 0.00 0.00 0.00 0.00 0.03 0.06 0.37 0.38 0.17 0.14 0.05 0.02 0.01 0.00 0.00 0.00 0.00 0.00 0.00 0.00 0.00 0.00 0.00 0.01 0.00 0.01
0.03 0.10 0.08 0.08 0.04 0.00 0.00 0.00 0.00 0.01 0.01 0.01 0.01 0.00 0.00 0.00 0.00 0.00 0.00 0.00 0.00 0.01 0.08 0.16 0.76 0.76 0.14 0.07 0.02 0.02 0.00 0.00 0.00 0.00 0.00 0.00 0.00 0.00 0.00 0.00 0.01 0.02 0.01 0.04
MSLP
1009.37 1010.16 1010.69 1010.67 1010.85 1010.60 1010.55 1010.15 1009.67 1008.69 1007.77 1007.09 1006.53 1005.17 1004.50 1004.19 1003.83 1003.64 1003.17 1002.72 1002.00 1001.05 999.95 999.45 999.48 999.45 1000.43 1000.57 1000.85 1001.23 1001.34 999.83 1000.60 1001.38 1002.30 1002.86 1003.04 1003.24 1003.69 1003.63 1003.61 1003.97 1004.48 1004.96
1010.38 1010.39 1010.14 1010.10 1009.97 1009.99 1009.96 1009.87 1009.48 1008.56 1007.93 1007.58 1007.09 1005.27 1004.17 1004.18 1003.99 1003.60 1003.28 1002.81 1002.16 1001.34 1000.27 999.53 999.47 999.26 999.23 999.61 999.96 1000.04 1000.40 1000.74 1000.24 1000.40 1000.62 1001.03 1001.61 1002.42 1002.31 1002.98 1003.24 1003.46 1003.75 1004.14
1010.50 1010.11 1009.59 1009.60 1009.61 1009.72 1009.92 1010.14 1010.07 1009.93 1008.91 1008.39 1007.81 1005.63 1004.66 1003.90 1003.90 1003.67 1003.42 1003.01 1002.35 1001.76 1000.91 1000.06 999.61 999.27 999.00 998.83 999.24 999.34 999.52 999.69 999.99 999.72 1000.42 1001.42 1002.11 1002.56 1002.90 1002.88 1002.74 1002.67 1003.07 1003.48
1010.05 1009.35 1009.45 1009.43 1009.64 1009.78 1010.10 1010.16 1010.21 1010.07 1010.08 1009.72 1009.17 1006.80 1005.65 1004.79 1003.95 1003.82 1003.38 1003.02 1002.46 1001.62 1000.94 1000.22 999.66 999.25 998.61 998.33 998.09 998.49 998.71 999.09 999.30 999.87 1000.00 1000.32 1000.73 1001.48 1001.52 1001.60 1001.81 1002.00 1002.32 1002.74
1009.60 1009.40 1009.30 1009.49 1009.77 1009.83 1010.17 1010.41 1010.59 1010.49 1010.36 1010.15 1009.37 1008.84 1004.93 1005.03 1004.43 1003.95 1003.51 1002.90 1002.24 1001.66 1001.00 1000.23 999.32 998.46 997.83 997.48 997.57 997.43 997.63 998.32 998.89 999.19 999.24 999.49 1000.05 1000.44 1000.78 1001.34 1001.63 1001.84 1002.00 1002.21
1009.29 1009.04 1009.08 1009.32 1009.54 1009.75 1010.22 1010.65 1010.87 1010.91 1010.89 1010.54 1009.32 1009.06 1003.73 1005.24 1004.52 1004.18 1003.69 1003.64 1003.13 1002.53 1001.44 1000.46 999.28 998.37 997.68 997.17 996.77 996.82 997.22 997.49 998.11 998.25 998.60 998.96 999.49 1000.12 1000.89 1001.18 1001.46 1001.69 1001.97 1002.13
1009.58 1009.26 1009.11 1009.33 1009.78 1010.06 1010.79 1011.58 1012.20 1012.15 1011.87 1010.69 1009.43 1008.52 1006.00 1004.99 1004.89 1005.17 1004.92 1004.11 1003.25 1002.64 1001.98 1001.09 1000.15 999.01 997.69 996.98 996.96 996.40 996.49 996.70 997.00 997.64 998.15 998.35 998.74 999.25 999.96 1000.55 1001.01 1001.52 1001.77 1002.20
1010.46 1010.16 1009.55 1009.83 1010.06 1010.41 1011.02 1011.93 1013.11 1013.04 1012.81 1011.39 1010.69 1008.25 1006.29 1005.27 1005.02 1005.06 1004.94 1004.33 1003.28 1002.44 1001.78 1001.01 1000.22 999.10 997.81 996.88 996.34 996.29 995.94 996.09 996.40 996.65 996.97 997.51 998.10 998.65 999.23 999.90 1000.35 1000.74 1001.19 1001.60
1011.46 1010.57 1009.75 1009.68 1009.82 1010.52 1010.82 1011.66 1011.74 1012.65 1012.60 1012.27 1010.01 1007.48 1005.79 1005.19 1004.95 1004.34 1004.10 1003.50 1002.89 1002.15 1001.50 1000.51 999.77 998.89 997.47 996.23 995.46 995.09 995.20 995.21 995.53 995.91 996.48 997.08 997.55 998.10 998.69 999.40 999.87 1000.21 1000.91 1001.49
1012.10 1011.26 1010.29 1010.02 1009.97 1009.55 1010.32 1011.02 1012.08 1013.00 1012.97 1011.65 1009.26 1007.95 1006.59 1005.65 1005.20 1004.55 1003.76 1003.32 1002.42 1001.86 1001.11 1000.14 999.50 998.42 997.15 996.23 995.09 994.25 994.01 994.13 994.49 995.05 995.84 996.45 996.99 997.53 998.21 999.13 999.35 1000.07 1000.82 1001.39
1012.38 1012.51 1011.52 1011.07 1010.29 1009.66 1010.48 1011.10 1012.05 1012.69 1012.81 1011.66 1010.13 1007.85 1006.18 1005.78 1005.04 1004.73 1003.84 1003.05 1002.10 1001.35 1000.66 999.69 998.81 997.96 997.06 996.20 995.21 993.89 993.04 993.45 994.13 994.71 995.18 995.91 996.74 997.38 998.13 998.53 999.06 999.83 1000.51 1001.17
1013.08 1013.22 1012.76 1011.70 1009.85 1010.00 1010.26 1010.74 1011.40 1012.04 1012.16 1011.29 1010.22 1007.48 1005.27 1005.04 1004.20 1004.13 1003.12 1002.07 1001.43 1000.60 999.79 998.83 998.11 997.34 996.52 995.96 994.80 993.64 992.55 992.92 993.11 993.88 994.76 995.57 996.37 997.18 997.80 998.35 998.90 999.67 1000.36 1000.98
1013.45 1013.76 1013.33 1011.67 1010.71 1010.43 1010.25 1010.72 1011.00 1011.07 1010.97 1010.32 1009.71 1006.40 1004.53 1004.23 1004.03 1003.47 1002.81 1001.63 1000.68 999.66 998.46 997.48 997.23 996.53 996.09 995.26 994.35 993.75 992.85 992.34 992.76 993.45 994.41 995.53 996.34 997.05 997.67 998.23 998.80 999.55 1000.22 1000.96
1013.49 1014.04 1013.91 1012.64 1011.27 1010.53 1010.25 1010.11 1010.22 1010.40 1009.89 1009.00 1007.62 1006.14 1004.70 1003.49 1003.11 1002.27 1001.54 1000.02 999.49 998.48 997.41 996.38 995.97 995.47 995.03 994.59 993.96 993.43 992.80 991.65 992.40 993.44 994.48 995.43 996.20 997.02 997.55 998.07 998.75 999.27 1000.08 1000.83
1013.80 1014.05 1013.62 1012.04 1011.04 1010.13 1009.52 1009.32 1008.77 1008.41 1008.06 1007.81 1005.99 1005.56 1004.01 1003.03 1001.86 1001.05 1000.63 999.63 998.80 997.54 996.29 995.21 995.11 994.28 993.48 993.75 993.77 993.25 993.21 992.02 992.58 993.51 994.63 995.60 996.38 996.98 997.76 998.30 998.91 999.30 999.99 1000.73
1013.95 1013.52 1012.97 1011.36 1009.97 1009.25 1008.58 1008.02 1007.51 1006.77 1006.48 1005.98 1005.43 1004.52 1003.17 1002.45 1001.45 1001.09 1000.79 999.74 998.77 997.58 995.78 995.30 994.24 993.82 993.17 992.88 992.85 992.83 993.03 992.86 992.82 993.50 994.37 995.64 996.57 996.83 997.65 998.20 998.93 999.57 1000.40 1001.22
1013.93 1013.73 1013.13 1011.23 1009.80 1008.93 1007.92 1007.08 1006.71 1006.47 1006.10 1006.07 1005.47 1004.42 1003.99 1002.99 1002.28 1002.16 1000.85 1000.24 999.19 998.29 997.62 996.08 995.17 993.96 993.63 991.70 992.16 993.33 994.26 992.81 993.14 993.52 994.56 995.71 996.44 997.05 998.00 998.73 999.30 1000.10 1000.84 1001.61
1013.07 1013.52 1012.97 1011.57 1010.41 1009.06 1008.07 1007.53 1007.32 1007.07 1006.46 1005.80 1005.19 1005.09 1004.88 1003.91 1003.40 1002.23 1001.08 1000.36 1000.13 998.75 997.13 995.29 994.37 994.13 993.58 993.92 992.83 993.04 994.69 993.12 993.29 993.74 994.94 995.87 996.57 997.40 998.38 999.06 999.68 1000.47 1001.24 1002.02
1012.04 1012.74 1012.71 1012.09 1011.17 1009.27 1007.64 1007.81 1007.87 1007.82 1006.12 1005.83 1005.75 1005.50 1004.64 1004.75 1003.15 999.81 1000.50 1000.60 1000.26 998.90 996.96 995.07 994.21 994.02 994.44 994.30 994.47 994.06 994.38 993.16 993.33 994.22 995.45 996.35 997.00 997.83 998.51 999.41 1000.02 1000.77 1001.64 1002.52
1012.26 1012.34 1012.37 1011.68 1011.11 1009.65 1007.97 1007.90 1007.97 1007.91 1006.29 1005.72 1006.06 1005.70 1004.68 1005.10 1003.61 1000.81 1001.02 1000.51 999.29 997.78 996.39 995.12 994.11 993.12 993.69 994.11 993.49 994.31 993.64 993.13 993.50 994.77 995.97 996.61 997.21 997.99 998.91 999.62 1000.31 1001.11 1001.76 1002.81
1011.93 1011.69 1011.51 1010.99 1010.54 1008.85 1007.70 1007.75 1007.79 1007.88 1006.76 1005.48 1006.22 1005.79 1005.07 1004.65 1004.18 1002.77 1001.18 999.52 999.03 997.34 995.95 994.97 994.09 993.42 994.24 994.20 993.77 994.45 993.25 993.47 994.35 995.32 996.00 996.76 997.55 998.37 999.05 999.88 1000.61 1001.42 1002.18 1002.97
1011.66 1011.60 1011.12 1010.64 1009.91 1009.04 1007.78 1007.96 1008.14 1007.24 1005.86 1005.39 1005.36 1005.08 1004.65 1003.76 1002.61 1002.25 1000.68 999.35 998.66 997.25 995.28 995.11 994.51 993.10 992.19 992.08 992.10 993.43 992.91 993.71 994.51 995.53 996.43 997.17 997.74 998.50 999.36 1000.13 1001.10 1001.71 1002.46 1003.27
1011.22 1011.14 1010.82 1010.57 1008.89 1007.61 1007.70 1007.38 1006.87 1006.72 1005.86 1005.16 1004.66 1004.00 1004.48 1003.05 1001.90 1000.75 999.60 998.42 998.06 997.17 995.85 994.37 993.74 994.37 994.03 993.57 993.93 992.98 993.32 993.97 995.00 996.12 997.02 997.60 998.13 998.96 999.81 1000.55 1001.45 1002.10 1002.62 1003.43
1010.82 1010.51 1010.04 1009.73 1007.77 1007.07 1006.87 1006.78 1006.82 1006.32 1005.52 1004.95 1004.73 1003.53 1003.37 1002.06 1001.50 1000.29 999.23 998.23 997.40 996.61 995.95 995.04 993.93 993.87 994.34 993.90 993.52 992.95 993.73 994.67 995.60 996.59 997.26 998.02 998.75 999.65 1000.18 1000.91 1001.55 1002.13 1002.75 1003.48
1010.76 1010.02 1009.33 1008.61 1007.57 1006.98 1006.38 1006.37 1006.03 1005.66 1005.12 1004.93 1004.22 1003.40 1002.53 1001.61 1000.79 1000.05 999.04 997.98 996.91 996.22 995.69 994.86 994.28 994.15 994.28 993.92 993.33 993.39 994.42 995.11 996.07 996.90 997.64 998.41 999.30 1000.10 1001.10 1001.84 1002.44 1002.50 1002.72 1002.91
1009.22 1008.75 1008.58 1007.43 1007.12 1006.84 1006.26 1005.76 1005.18 1005.07 1005.03 1004.54 1003.93 1003.04 1002.25 1001.66 1000.70 999.93 998.80 997.56 996.03 995.19 994.44 993.77 994.58 992.57 994.40 993.80 993.39 993.93 994.71 995.48 996.31 997.42 998.07 998.91 999.89 1000.61 1001.27 1001.91 1002.97 1003.33 1003.31 1003.40
Thickness
5610 5597 5589 5596 5598 5608 5609 5610 5609 5621 5634 5636 5637 5655 5673 5681 5686 5687 5695 5707 5717 5735 5756 5768 5778 5784 5774 5777 5781 5779 5781 5799 5801 5795 5790 5788 5790 5793 5791 5794 5796 5793 5786 5781
5589 5584 5600 5605 5606 5604 5603 5599 5597 5615 5624 5624 5623 5644 5670 5673 5673 5682 5688 5696 5706 5720 5742 5755 5759 5769 5773 5776 5777 5780 5781 5784 5791 5796 5799 5798 5797 5791 5794 5790 5789 5784 5780 5778
5580 5588 5601 5598 5592 5592 5589 5582 5580 5582 5601 5605 5600 5627 5646 5664 5663 5671 5678 5684 5694 5702 5716 5734 5744 5750 5761 5767 5771 5775 5777 5780 5785 5793 5790 5783 5783 5782 5780 5784 5786 5783 5778 5777
5580 5592 5590 5586 5582 5581 5570 5579 5577 5578 5570 5559 5587 5582 5619 5639 5645 5650 5660 5667 5677 5687 5700 5714 5733 5740 5749 5759 5768 5769 5775 5776 5780 5781 5782 5785 5783 5776 5781 5785 5782 5779 5778 5775
5574 5579 5576 5572 5572 5576 5564 5568 5564 5567 5559 5552 5571 5547 5616 5621 5624 5638 5647 5656 5663 5676 5685 5700 5719 5739 5752 5759 5762 5767 5769 5768 5773 5776 5783 5786 5782 5779 5776 5772 5771 5768 5768 5770
5575 5583 5573 5566 5568 5566 5561 5553 5550 5546 5544 5528 5562 5546 5609 5599 5612 5623 5627 5625 5638 5651 5669 5685 5703 5721 5738 5750 5758 5764 5764 5766 5766 5771 5776 5779 5777 5772 5764 5763 5759 5758 5758 5759
5564 5566 5570 5565 5554 5553 5544 5525 5500 5507 5515 5524 5550 5540 5577 5594 5589 5578 5587 5604 5620 5636 5649 5664 5680 5702 5723 5737 5742 5755 5761 5765 5769 5768 5770 5775 5774 5770 5762 5756 5754 5751 5749 5745
5533 5536 5561 5555 5547 5538 5533 5524 5482 5489 5508 5519 5531 5532 5559 5570 5571 5574 5579 5586 5607 5620 5637 5654 5667 5687 5708 5724 5739 5745 5753 5760 5764 5768 5771 5773 5770 5766 5760 5754 5754 5751 5746 5742
5528 5539 5558 5556 5552 5540 5531 5518 5524 5489 5509 5504 5523 5548 5567 5570 5566 5572 5575 5583 5591 5610 5625 5644 5660 5677 5698 5717 5734 5746 5752 5756 5759 5763 5764 5764 5764 5760 5756 5750 5749 5746 5740 5738
5530 5526 5550 5548 5545 5548 5530 5528 5499 5481 5495 5507 5530 5535 5541 5554 5555 5562 5569 5572 5583 5596 5612 5633 5650 5669 5687 5705 5722 5740 5750 5756 5759 5759 5756 5757 5757 5755 5749 5744 5743 5740 5735 5730
5524 5519 5530 5531 5529 5530 5520 5510 5502 5492 5495 5506 5505 5519 5542 5544 5550 5548 5556 5564 5572 5583 5600 5622 5639 5658 5677 5694 5713 5734 5749 5751 5751 5751 5753 5751 5748 5745 5741 5742 5740 5735 5730 5724
5517 5503 5496 5520 5536 5530 5521 5510 5496 5481 5496 5498 5498 5514 5551 5543 5548 5545 5554 5565 5569 5578 5596 5614 5631 5650 5670 5685 5705 5726 5742 5746 5750 5748 5747 5743 5742 5740 5738 5736 5733 5729 5723 5719
5510 5489 5494 5512 5522 5516 5511 5506 5501 5497 5490 5494 5496 5522 5550 5545 5545 5545 5546 5558 5567 5579 5598 5614 5625 5645 5660 5676 5696 5710 5729 5739 5742 5743 5740 5736 5734 5733 5732 5729 5726 5722 5717 5712
5505 5493 5488 5493 5510 5511 5497 5502 5499 5491 5477 5501 5514 5522 5539 5552 5551 5552 5552 5565 5571 5581 5596 5611 5624 5641 5657 5668 5681 5700 5718 5736 5736 5735 5732 5729 5729 5726 5725 5723 5720 5717 5712 5706
5494 5493 5490 5503 5506 5508 5504 5502 5506 5506 5510 5502 5526 5525 5540 5545 5554 5557 5555 5565 5568 5581 5601 5615 5621 5634 5650 5660 5673 5692 5702 5724 5726 5724 5721 5720 5720 5719 5716 5715 5712 5711 5707 5702
5488 5495 5497 5503 5515 5516 5512 5514 5516 5523 5525 5524 5523 5524 5545 5546 5555 5555 5552 5561 5566 5577 5599 5610 5629 5639 5648 5660 5673 5677 5690 5707 5717 5718 5718 5714 5711 5714 5712 5710 5706 5703 5698 5693
5478 5482 5485 5504 5518 5515 5514 5522 5521 5518 5523 5515 5507 5524 5525 5533 5542 5540 5546 5551 5564 5575 5585 5602 5615 5629 5635 5662 5666 5669 5676 5702 5709 5714 5712 5708 5708 5706 5702 5701 5699 5692 5688 5684
5487 5475 5488 5492 5491 5504 5512 5510 5508 5504 5513 5513 5515 5508 5506 5513 5522 5535 5546 5548 5548 5563 5582 5605 5624 5629 5635 5634 5651 5650 5666 5695 5704 5708 5704 5701 5702 5699 5695 5693 5691 5685 5682 5676
5493 5485 5483 5485 5473 5506 5520 5505 5495 5487 5501 5507 5496 5493 5500 5497 5516 5557 5552 5541 5542 5560 5584 5607 5623 5626 5626 5634 5639 5654 5665 5690 5700 5700 5696 5694 5694 5691 5688 5683 5683 5679 5674 5668
5492 5488 5482 5483 5479 5462 5503 5499 5494 5485 5497 5500 5491 5492 5497 5492 5505 5536 5535 5539 5552 5571 5587 5605 5618 5636 5629 5632 5639 5650 5673 5691 5697 5691 5688 5690 5689 5685 5681 5679 5676 5672 5669 5661
5490 5492 5490 5488 5481 5493 5500 5497 5484 5470 5490 5491 5477 5484 5488 5493 5505 5519 5532 5549 5559 5578 5592 5605 5617 5626 5617 5634 5643 5654 5679 5685 5686 5686 5687 5685 5682 5679 5678 5674 5670 5666 5661 5657
5473 5476 5482 5488 5487 5474 5494 5479 5472 5479 5487 5484 5480 5483 5489 5504 5519 5523 5542 5557 5567 5582 5597 5603 5609 5626 5633 5655 5663 5665 5681 5684 5686 5682 5679 5677 5678 5677 5673 5669 5663 5661 5656 5651
5471 5476 5483 5479 5485 5498 5488 5475 5473 5472 5480 5485 5486 5490 5490 5508 5525 5543 5555 5570 5575 5586 5596 5608 5617 5615 5628 5645 5653 5671 5679 5683 5679 5673 5671 5672 5673 5670 5667 5662 5657 5655 5653 5647
5481 5477 5479 5478 5498 5494 5489 5480 5472 5472 5481 5486 5483 5490 5499 5517 5531 5547 5559 5573 5583 5593 5599 5612 5618 5627 5635 5649 5660 5672 5675 5674 5670 5667 5669 5667 5665 5660 5659 5658 5656 5654 5650 5645
5475 5486 5479 5477 5493 5490 5490 5479 5473 5478 5483 5480 5486 5493 5506 5522 5540 5552 5569 5581 5590 5595 5605 5614 5629 5637 5644 5651 5665 5671 5669 5670 5666 5666 5664 5663 5659 5653 5647 5642 5645 5650 5649 5649
5489 5492 5486 5492 5489 5482 5480 5473 5479 5479 5478 5481 5486 5497 5510 5523 5538 5552 5566 5580 5597 5608 5619 5631 5621 5633 5644 5659 5669 5670 5670 5669 5665 5660 5660 5656 5651 5647 5645 5644 5638 5633 5636 5639